www.pogodaiklimat.ru

Погода и климат >> Архив погоды >> Австралия >> Западная Австралия >> Калгурли-Боулдер


ПОГОДА в Калгурли-Боулдере

  • Прогноз погоды в Калгурли-Боулдере
  • Монитор погоды в Калгурли-Боулдере

АРХИВ ПОГОДЫ в Калгурли-Боулдере

Время (UTC), дата Ветер
(напр.,м/с)
 
Видим.   Явления Облачность Т
(С)
Тd
(С)
f
(%)
Тe
(С)
Тes
(С)
Комфортность P
(гПа)
Po
(гПа)
Тmin
(С)
Tmax
(С)
R
(мм)
R24
(мм)
S
(см)
10 17.01 0 н/о 1005.2 964.4
12 17.01 0 н/о 1007.1 966.2
13 17.01 0 н/о 1008.1 967.2
15 17.01 0 н/о 1011.0 970.0
16 17.01 0 н/о 1011.5 970.5
18 17.01 0 н/о 1012.5 971.4
19 17.01 0 н/о 1013.3 972.2
21 17.01 0 н/о 1014.9 973.7
22 17.01 0 н/о 1014.9 973.7
00 18.01 0 н/о 1016.2 975.0
01 18.01 0 н/о 1016.6 975.4
03 18.01 0 н/о 1016.2 975.0
04 18.01 0 н/о 1015.5 974.3
06 18.01 0 н/о 1013.8 972.7
07 18.01 0 н/о 1013.3 972.2
09 18.01 0 н/о 1012.5 971.4
10 18.01 0 н/о 1013.1 972.0
12 18.01 0 н/о 1014.5 973.3
13 18.01 0 н/о 1015.1 973.9
15 18.01 0 н/о 1015.4 974.2
16 18.01 0 н/о 1016.2 975.0
18 18.01 0 н/о 1017.1 975.8
19 18.01 0 н/о 1017.3 976.0
21 18.01 0 н/о 1018.1 976.8
22 18.01 0 н/о 1018.4 977.1
00 19.01 0 н/о 1019.4 978.0
01 19.01 0 н/о 1019.0 977.7
03 19.01 0 н/о 1017.7 976.4
04 19.01 0 н/о 1016.8 975.5
06 19.01 0 н/о 1014.8 973.6
07 19.01 0 н/о 1014.0 972.9
09 19.01 0 н/о 1013.3 972.2
10 19.01 0 н/о 1013.6 972.5
12 19.01 0 н/о 1014.7 973.5
13 19.01 0 н/о 1015.1 973.9
15 19.01 0 н/о 1014.9 973.7
16 19.01 0 н/о 1014.8 973.6
18 19.01 0 н/о 1014.6 973.4
19 19.01 0 н/о 1015.0 973.8
21 19.01 0 н/о 1016.0 974.8
22 19.01 0 н/о 1016.6 975.4
00 20.01 0 н/о 1017.0 975.7
01 20.01 0 н/о 1016.4 975.2
03 20.01 0 н/о 1015.0 973.8
04 20.01 0 н/о 1014.1 973.0
06 20.01 0 н/о 1012.3 971.2
07 20.01 0 н/о 1011.4 970.4
09 20.01 0 н/о 1010.6 969.6
10 20.01 0 н/о 1010.6 969.6
12 20.01 0 н/о 1011.4 970.4
13 20.01 0 н/о 1011.8 970.7
15 20.01 0 н/о 1011.5 970.5
16 20.01 0 н/о 1011.1 970.1
18 20.01 0 н/о 1010.5 969.5
19 20.01 0 н/о 1010.3 969.3
21 20.01 0 н/о 1010.8 969.8
22 20.01 0 н/о 1011.3 970.3
00 21.01 0 н/о 1011.6 970.6
01 21.01 0 н/о 1011.4 970.4
03 21.01 0 н/о 1010.2 969.2
04 21.01 штиль 0 50 км ?/? -20.4 -20 -20 1009.1 968.2
06 21.01 0 н/о 1007.1 966.2
07 21.01 0 н/о 1006.2 965.4
09 21.01 0 н/о 1005.1 964.3
10 21.01 0 н/о 1005.0 964.2
12 21.01 0 н/о 1005.5 964.7
13 21.01 0 н/о 1005.4 964.6
15 21.01 0 н/о 1004.8 964.0
16 21.01 0 н/о 1004.2 963.5
18 21.01 0 н/о 1005.0 964.2
19 21.01 0 н/о 1004.9 964.1
21 21.01 0 н/о 1005.2 964.4
22 21.01 0 н/о 1005.5 964.7
00 22.01 0 н/о 1005.0 964.2
01 22.01 0 н/о 1004.1 963.4
03 22.01 0 н/о 1002.0 961.3
04 22.01 0 н/о 1001.1 960.5
06 22.01 0 н/о 998.6 958.1
07 22.01 штиль 0 50 км ?/? +1 +1 997.3 956.8
09 22.01 0 н/о 995.8 955.4
10 22.01 0 ливневой дождь {туман} н/о 999.2 958.7
12 22.01 0 н/о 1000.4 959.8
13 22.01 0 в посл. час дождь со снегом {туман} н/о 1000.6 960.0
15 22.01 0 н/о 999.6 959.0
16 22.01 0 в посл. час дождь со снегом н/о 999.7 959.1
18 22.01 0 н/о 998.9 958.4
19 22.01 0 н/о 998.3 957.8
21 22.01 0 н/о 999.8 959.2
22 22.01 0 н/о 1000.5 959.9
00 23.01 0 н/о 1002.3 961.6
01 23.01 0 н/о 1002.3 961.6
03 23.01 0 н/о 1001.4 960.8
04 23.01 0 н/о 1001.4 960.8
06 23.01 0 н/о 1000.6 960.0
07 23.01 0 н/о 1000.6 960.0
09 23.01 З 7 н/о н/о +32.5 +6.7 20 +31 +31 жарко 1000.3 959.7
10 23.01 З 7 н/о 1/0
[]
+30.1 +5.4 21 +28 +29 жарко 1001.0 960.4
12 23.01 З 4 н/о н/о +28.1 +3.7 21 +27 +27 жарко 1002.6 961.9
13 23.01 З 6 н/о 6/0
[]
+26.8 +2.0 20 +25 +25 комфорт 1003.6 962.9
15 23.01 З 8 н/о н/о +22.5 +4.5 31 +23 +23 комфорт 1004.8 964.0
16 23.01 З 5 н/о н/о +20.7 +3.4 32 +21 +21 комфорт 1005.0 964.2
18 23.01 З 5 н/о н/о +18.1 +6.9 48 +18 +18 1005.5 964.7
19 23.01 З 7 н/о н/о +17.4 +8.3 55 +17 +17 1005.8 965.0
21 23.01 З 5 н/о н/о +15.7 +9.4 66 +15 +15 1007.2 966.3
22 23.01 ЮЗ 5 н/о н/о +16.0 +10.1 68 +15 +15 1008.1 967.2
00 24.01 З 7 н/о н/о +18.9 +9.7 55 +19 +19 1008.9 968.0
01 24.01 З 6 н/о н/о +20.4 +9.6 50 +22 +22 комфорт 1009.1 968.2
03 24.01 З 4 н/о н/о +23.6 +9.2 40 +24 +24 комфорт 1008.6 967.7
04 24.01 ЮЗ 6 н/о н/о +25.1 +9.0 36 +26 +26 жарко 1008.3 967.4
06 24.01 Ю 5 н/о н/о +29.2 +8.8 28 +29 +29 жарко 1006.9 966.0
07 24.01 ЮЗ 6 н/о н/о +29.9 +8.3 26 +29 +29 жарко 1006.4 965.6
09 24.01 Ю 5 н/о н/о +30.7 +7.8 24 +30 +30 жарко 1006.1 965.3
10 24.01 ЮЗ 5 н/о н/о +30.1 +7.9 25 +29 +29 жарко 1006.4 965.6

 

Местоположение метеостанции Калгурли-Боулдер (Западная Австралия, Австралия): широта -30.78 долгота 121.45 высота над уровнем моря 370 м.

В архиве по умолчанию представлена погода в Калгурли-Боулдере за последнюю неделю. Архивные данные за месяц целиком и за предыдущие месяцы, начиная с января 2011 года, Вы можете получить, выбрав интересующий диапазон дат из раскрывающегося списка и нажав кнопку "Ввод!".


*Определитесь, кто Вы:
робот инопланетянин человек

Внимание! Время в таблицах - всемирное. Для получения местного времени необходимо прибавить поправку, которая равна 8 ч.

Смотрите также архив погоды в соседних городах и на ближайших метеорологических станциях:

Погода в Норсмане (Западная Австралия, Австралия) (163 км)
Погода в Саутерн Кросс (Западная Австралия, Австралия) (206 км)
Погода в Леоноре (Западная Австралия, Австралия) (212 км)
Погода в Салмон Гамс (Западная Австралия, Австралия) (245 км)
Погода в Лавертоне (Западная Австралия, Австралия) (259 км)
Погода в Мунглинап Запад (Западная Австралия, Австралия) (316 км)
Погода в Эсперансе (Западная Австралия, Австралия) (325 км)
Погода в Леинстере (Западная Австралия, Австралия) (334 км)
Погода в Эсперансе (Западная Австралия, Австралия) (342 км)
Погода в Ньюдегейте (Западная Австралия, Австралия) (359 км)

Пояснения к столбцам:

Ветер - указаны скорость ветра в м/с - средняя за 10 мин, порывы в срок и между сроками (в фигурных скобках) и направление, откуда дует ветер: С - северный, СВ - северо-восточный, В - восточный, ЮВ - юго-восточный, Ю - южный, ЮЗ - юго-западный, З - западный, СЗ - северо-западный.
Видимость - горизонтальная дальность видимости в метрах или километрах. При видимости от 1 до 10 км при отсутствии осадков обычно наблюдается дымка, при ухудшении видимости до 1 км и менее - туман. В сухую погоду видимость может ухудшаться дымом, пылью или мглою.
Явления - указаны атмосферные явления, наблюдавшиеся в срок или в последний час перед сроком; фигурными скобками обозначены явления, наблюдавшиеся между сроками (за 1-3 часа до срока); квадратными скобками обозначены град или гололедные отложения с указанием их диаметра в мм.
Облачность - указаны через наклонную черту общая и нижняя облачность в баллах и высота нижней границы облаков в метрах; квадратными скобками обозначены формы облаков: Ci - перистые, Cs - перисто-слоистые, Cc - перисто-кучевые, Ac - высококучевые, As - высокослоистые, Sc - слоисто-кучевые, Ns - слоисто-дождевые, Cu - кучевые, Cb - кучево-дождевые. Подробнее классификацию облаков см. в Атласе облаков (PDF).
T - Температура воздуха - температура, измеренная на высоте 2 м над землей.
Td - Температура точки росы - температура, при понижении до которой содержащийся в воздухе водяной пар достигнет насыщения.
f - Относительная влажность воздуха - влажноcть воздуха, измеренная на высоте 2 м над землей.
Te - Эффективная температура - температура, которую ощущает одетый по сезону человек в тени. Характеристика душности погоды. При расчете учитывается влияние влажности воздуха и скорости ветра на теплоощущения человека.
Tes - Эффективная температура на солнце - температура, которую ощущает человек, с поправкой на солнечный нагрев. Характеристика знойности погоды. Зависит от высоты солнца над горизонтом, облачности и скорости ветра. Ночью, в пасмурную погоду, а также при ветре 12 м/с и более поправка равна нулю.
P - Атмосферное давление - приведенное к уровню моря атмосферное давление.
Po - Атмосферное давление - измеренное на уровне метеостанции атмосферное давление.
Tmin - Минимальная температура - минимум температуры воздуха на высоте 2 м над землей.
Tmax - Максимальная температура - максимум температуры воздуха на высоте 2 м над землей.
R - Количество осадков - Количество выпавших осадков за период времени, мм. При наведении курсора мыши на число - период времени, за который выпало указанное количество осадков.
R24 - Количество осадков - Количество выпавших осадков за 24 часа, мм.
S - Снежный покров - Высота снежного покрова, см. При наведении курсора мыши на число - состояние снежного покрова и степень покрытия местности в баллах.